When you browse on this site, cookies collect data to enhance your experience and personalize the content and advertising you see.
Visit our Privacy Policy to learn more. By continuing to use the site, you agree to this use of cookies and data.
  • In Hungary
  • List of Countries
  • For 7 days
  • Water Temperature
  • Satellite Maps
  • Weather Map
  • News
  • Weather Widgets
  • user-avatar
    Login

    Hourly Weather Kohtla-Jarve

    Today, 20 February, Wednesday

    Time Temperature Precipitation Wind Pressure Humidity
    00:00 0°C° 0 mm 5 mps 739 mmHg 92%
    01:00 0°C° 0 mm 5 mps 739 mmHg 92%
    02:00 0°C° 0 mm 5 mps 738 mmHg 92%
    03:00 0°C° 0.3 mm 5 mps 738 mmHg 92%
    04:00 -1°C° 0.3 mm 6 mps 738 mmHg 92%
    05:00 -1°C° 0.3 mm 6 mps 737 mmHg 92%
    06:00 -1°C° 0.2 mm 6 mps 737 mmHg 92%
    07:00 0°C° 0.2 mm 5 mps 737 mmHg 92%
    08:00 0°C° 0 mm 5 mps 737 mmHg 92%
    09:00 0°C° 0.1 mm 5 mps 737 mmHg 91%
    10:00 0°C° 0.1 mm 5 mps 737 mmHg 90%
    11:00 +1°C° 0.1 mm 6 mps 737 mmHg 89%
    12:00 -1°C° 0.2 mm 7 mps 738 mmHg 87%
    13:00 -2°C° 0.2 mm 8 mps 738 mmHg 85%
    14:00 -4°C° 0 mm 9 mps 739 mmHg 83%
    15:00 -5°C° 0.1 mm 9 mps 740 mmHg 82%
    16:00 -7°C° 0.1 mm 10 mps 741 mmHg 81%
    17:00 -8°C° 0.1 mm 10 mps 742 mmHg 80%
    18:00 -8°C° 0.1 mm 10 mps 743 mmHg 77%
    19:00 -8°C° 0.1 mm 11 mps 744 mmHg 75%
    20:00 -8°C° 0.1 mm 11 mps 744 mmHg 72%
    21:00 -8°C° 0.1 mm 12 mps 745 mmHg 71%
    22:00 -8°C° 0.1 mm 12 mps 746 mmHg 69%
    23:00 -8°C° 0.1 mm 12 mps 747 mmHg 68%

    Tomorrow, 21 February, Thursday

    Time Temperature Precipitation Wind Pressure Humidity
    00:00 -10°C° 0.1 mm 12 mps 748 mmHg 68%
    01:00 -10°C° 0.1 mm 12 mps 749 mmHg 67%
    02:00 -10°C° 0.1 mm 12 mps 751 mmHg 67%
    03:00 -11°C° 0.1 mm 12 mps 752 mmHg 68%
    04:00 -11°C° 0.1 mm 11 mps 753 mmHg 68%
    05:00 -11°C° 0.1 mm 11 mps 754 mmHg 69%
    06:00 -12°C° 0 mm 10 mps 754 mmHg 70%
    07:00 -11°C° 0 mm 9 mps 755 mmHg 71%
    08:00 -12°C° 0 mm 9 mps 756 mmHg 72%
    09:00 -11°C° 0 mm 8 mps 757 mmHg 71%
    10:00 -11°C° 0 mm 8 mps 758 mmHg 70%
    11:00 -11°C° 0 mm 8 mps 758 mmHg 69%
    12:00 -11°C° 0 mm 7 mps 759 mmHg 67%
    13:00 -11°C° 0 mm 7 mps 759 mmHg 64%
    14:00 -9°C° 0 mm 7 mps 760 mmHg 61%
    15:00 -11°C° 0 mm 7 mps 760 mmHg 61%
    16:00 -11°C° 0 mm 7 mps 761 mmHg 61%
    17:00 -11°C° 0 mm 7 mps 761 mmHg 62%
    18:00 -11°C° 0 mm 7 mps 762 mmHg 62%
    19:00 -11°C° 0 mm 6 mps 763 mmHg 63%
    20:00 -11°C° 0 mm 6 mps 763 mmHg 64%
    21:00 -11°C° 0 mm 6 mps 764 mmHg 65%
    22:00 -11°C° 0 mm 6 mps 764 mmHg 66%
    23:00 -11°C° 0 mm 6 mps 765 mmHg 66%

    Day after tomorrow, 22 February, Friday

    Time Temperature Precipitation Wind Pressure Humidity
    00:00 -11°C° 0 mm 6 mps 765 mmHg 67%
    01:00 -11°C° 0 mm 6 mps 766 mmHg 68%
    02:00 -11°C° 0 mm 5 mps 767 mmHg 69%
    03:00 -11°C° 0 mm 6 mps 767 mmHg 70%
    04:00 -11°C° 0 mm 6 mps 768 mmHg 70%
    05:00 -11°C° 0 mm 6 mps 768 mmHg 71%
    06:00 -11°C° 0 mm 6 mps 768 mmHg 72%
    07:00 -11°C° 0 mm 6 mps 769 mmHg 72%
    08:00 -11°C° 0 mm 6 mps 770 mmHg 73%
    09:00 -11°C° 0 mm 6 mps 770 mmHg 70%
    10:00 -10°C° 0 mm 6 mps 771 mmHg 67%
    11:00 -9°C° 0 mm 6 mps 771 mmHg 65%
    12:00 -9°C° 0 mm 6 mps 772 mmHg 63%
    13:00 -8°C° 0 mm 5 mps 772 mmHg 62%
    14:00 -8°C° 0 mm 5 mps 772 mmHg 60%
    15:00 -8°C° 0 mm 5 mps 772 mmHg 63%
    16:00 -9°C° 0 mm 4 mps 773 mmHg 65%
    17:00 -9°C° 0 mm 4 mps 773 mmHg 68%
    18:00 -10°C° 0 mm 4 mps 773 mmHg 69%
    19:00 -9°C° 0 mm 3 mps 773 mmHg 70%
    20:00 -9°C° 0 mm 3 mps 773 mmHg 71%
    21:00 -8°C° 0 mm 2 mps 774 mmHg 71%
    22:00 -8°C° 0 mm 2 mps 774 mmHg 72%
    23:00 -7°C° 0 mm 1 mps 774 mmHg 72%

    23 February, Saturday

    Time Temperature Precipitation Wind Pressure Humidity
    00:00 -8°C° 0 mm 1 mps 774 mmHg 74%
    01:00 -9°C° 0 mm 2 mps 774 mmHg 75%
    02:00 -9°C° 0 mm 2 mps 773 mmHg 77%
    03:00 -10°C° 0 mm 3 mps 773 mmHg 76%
    04:00 -10°C° 0 mm 3 mps 773 mmHg 75%
    05:00 -11°C° 0 mm 4 mps 772 mmHg 74%
    06:00 -10°C° 0 mm 4 mps 772 mmHg 71%
    07:00 -11°C° 0 mm 5 mps 771 mmHg 68%
    08:00 -10°C° 0 mm 5 mps 771 mmHg 65%
    09:00 -10°C° 0.2 mm 6 mps 770 mmHg 71%
    10:00 -9°C° 0.2 mm 6 mps 770 mmHg 78%
    11:00 -9°C° 0.2 mm 6 mps 769 mmHg 85%
    12:00 -8°C° 0.1 mm 7 mps 768 mmHg 85%
    13:00 -7°C° 0.1 mm 7 mps 768 mmHg 85%
    14:00 -6°C° 0.1 mm 7 mps 767 mmHg 85%
    15:00 -6°C° 0.3 mm 7 mps 766 mmHg 86%
    16:00 -4°C° 0.3 mm 6 mps 766 mmHg 88%
    17:00 -3°C° 0.3 mm 6 mps 765 mmHg 90%
    18:00 -3°C° 0.1 mm 6 mps 765 mmHg 91%
    19:00 -2°C° 0.1 mm 6 mps 765 mmHg 92%
    20:00 -2°C° 0.1 mm 6 mps 765 mmHg 93%
    21:00 -1°C° 0 mm 5 mps 765 mmHg 93%
    22:00 -1°C° 0 mm 5 mps 764 mmHg 94%
    23:00 -1°C° 0 mm 5 mps 764 mmHg 95%

    24 February, Sunday

    Time Temperature Precipitation Wind Pressure Humidity
    00:00 -1°C° 0 mm 5 mps 764 mmHg 95%
    01:00 -1°C° 0 mm 5 mps 764 mmHg 96%
    02:00 -2°C° 0 mm 5 mps 764 mmHg 96%
    03:00 -1°C° 0 mm 5 mps 764 mmHg 97%
    04:00 -1°C° 0 mm 4 mps 764 mmHg 97%
    05:00 -1°C° 0 mm 4 mps 764 mmHg 97%
    06:00 0°C° 0 mm 3 mps 764 mmHg 97%
    07:00 0°C° 0 mm 3 mps 764 mmHg 97%
    08:00 +1°C° 0 mm 2 mps 764 mmHg 97%
    09:00 +1°C° 0 mm 2 mps 763 mmHg 97%
    10:00 +2°C° 0 mm 2 mps 763 mmHg 96%
    11:00 +2°C° 0 mm 2 mps 763 mmHg 95%
    12:00 +2°C° 0 mm 2 mps 762 mmHg 95%
    13:00 +2°C° 0 mm 3 mps 761 mmHg 95%
    14:00 +2°C° 0 mm 3 mps 761 mmHg 95%
    15:00 +2°C° 0 mm 3 mps 760 mmHg 96%
    16:00 +1°C° 0 mm 3 mps 759 mmHg 96%
    17:00 +1°C° 0 mm 3 mps 758 mmHg 97%
    18:00 +1°C° 0.1 mm 3 mps 758 mmHg 97%
    19:00 +1°C° 0.1 mm 3 mps 757 mmHg 97%
    20:00 +1°C° 0.1 mm 3 mps 757 mmHg 97%
    21:00 -1°C° 0.7 mm 6 mps 756 mmHg 93%
    22:00 0°C° 0.7 mm 8 mps 756 mmHg 90%
    23:00 0°C° 0.7 mm 10 mps 756 mmHg 87%

    25 February, Monday

    Time Temperature Precipitation Wind Pressure Humidity
    00:00 0°C° 0.4 mm 10 mps 757 mmHg 83%
    01:00 -2°C° 0.4 mm 10 mps 758 mmHg 79%
    02:00 -2°C° 0.4 mm 10 mps 758 mmHg 75%
    03:00 -2°C° 0 mm 10 mps 759 mmHg 75%
    04:00 -3°C° 0 mm 10 mps 759 mmHg 74%
    05:00 -3°C° 0 mm 9 mps 760 mmHg 73%
    06:00 -3°C° 0 mm 9 mps 760 mmHg 74%
    07:00 -4°C° 0 mm 8 mps 760 mmHg 75%
    08:00 -4°C° 0 mm 8 mps 761 mmHg 76%
    09:00 -2°C° 0 mm 8 mps 761 mmHg 74%
    10:00 -2°C° 0 mm 8 mps 761 mmHg 72%
    11:00 -1°C° 0 mm 9 mps 761 mmHg 70%
    12:00 -1°C° 0 mm 8 mps 761 mmHg 68%
    13:00 0°C° 0 mm 8 mps 761 mmHg 67%
    14:00 0°C° 0 mm 8 mps 760 mmHg 66%
    15:00 0°C° 0 mm 8 mps 760 mmHg 67%
    16:00 -1°C° 0 mm 8 mps 760 mmHg 69%
    17:00 -1°C° 0 mm 7 mps 760 mmHg 70%
    18:00 -1°C° 0 mm 8 mps 760 mmHg 71%
    19:00 -1°C° 0 mm 8 mps 760 mmHg 71%
    20:00 -1°C° 0 mm 8 mps 760 mmHg 72%
    21:00 -2°C° 0 mm 8 mps 760 mmHg 73%
    22:00 -2°C° 0 mm 7 mps 760 mmHg 74%
    23:00 -2°C° 0 mm 7 mps 760 mmHg 75%
    Show more